Regional Weather Roundup
Issued by NWS

Home | Current Version | Previous Version | Graphics & Text | Print | Product List | Glossary Off
Versions: 1 2 3 4 5 6 7 8 9 10 11 12 13 14 15 16 17 18 19 20 21 22 23 24 25 26 27 28 29 30 31 32 33 34 35 36 37 38 39 40 41 42 43 44 45 46 47 48 49 50

000
ASUS43 KMPX 300101
RWRMN
WEATHER ROUNDUP FOR MINNESOTA
NATIONAL WEATHER SERVICE TWIN CITIES/CHANHASSEN MN
800 PM CDT SUN MAR 29 2015


NOTE: "FAIR" INDICATES FEW OR NO CLOUDS BELOW 12,000 FEET WITH NO
SIGNIFICANT WEATHER AND/OR OBSTRUCTIONS TO VISIBILITY. N/A MEANS
CURRENT SKY AND/OR WEATHER CONDITIONS ARE NOT AVAILABLE.

MNZ060>063-068>070-300200-
   Twin Cities Metro

CITY           SKY/WX    TMP DP  RH WIND       PRES   REMARKS
TWIN CITIES    PTCLDY    48  26  42 NW14G25   29.90R
ST PAUL        CLEAR     48  26  42 NW13      29.90R
CRYSTAL        CLEAR     49  26  41 NW16G25   29.89R
BLAINE         PTCLDY    48  28  46 W12G17    29.89R
LAKEVILLE      CLEAR     45  28  53 W14G26    29.91R
EDEN PRAIRIE   CLEAR     48  27  44 NW12      29.91R
SOUTH ST PAUL  CLEAR     49  25  38 NW18      29.89R
LAKE ELMO      FAIR      46  28  49 NW13G22   29.89R
$$
MNZ001>005-007-008-013>017-022>024-027-028-300200-
   Northwest Minnesota

CITY           SKY/WX    TMP DP  RH WIND       PRES   REMARKS
BEMIDJI        CLEAR     42  25  52 NW12      29.86R
HALLOCK        CLEAR     45  34  65 W7        29.85S
ROSEAU         CLEAR     45  28  53 W8        29.83R
WARROAD        CLEAR     45  28  53 W7        29.82S
THIEF RVR FALL CLEAR     45  30  57 W7        29.87S
CROOKSTON      PTCLDY    43  28  56 NW8       29.89S
FOSSTON        PTCLDY    39  28  65 CALM      29.89S
DETROIT LAKES  PTCLDY    45  32  61 NW6       29.92R
MOORHEAD       MOCLDY    50  27  40 NW10      29.93R
PARK RAPIDS    PTCLDY    43  25  49 NW12      29.88R
MAHNOMEN       FAIR      41  32  70 NW5       29.89S
$$
MNZ006-009>011-018-025>026-300200-
   North Central Minnesota

CITY           SKY/WX    TMP DP  RH WIND       PRES   REMARKS
BAUDETTE       PTCLDY    41  28  60 W8        29.79S
FLAG ISLAND    PTCLDY    41  27  56 W9        29.78S
INTL FALLS     CLEAR     40  24  53 NW10      29.78R
WASKISH        CLEAR     41  28  60 W7        29.82S
BIG FORK       CLEAR     43  25  49 W3        29.82R
LONGVILLE      CLEAR     43  27  52 W8        29.86R
GRAND RAPIDS   CLEAR     43  25  49 NW12      29.82R
CRANE LAKE     CLOUDY    39  25  56 NW3       29.77R
ORR            PTCLDY    37  25  60 NW8       29.76R
COOK           MOCLDY    39  27  60 W12       29.79R
WALKER         FAIR      43  26  50 NW8       29.86R
$$
MNZ012-019>021-037-300200-
   Northeast Minnesota

CITY           SKY/WX    TMP DP  RH WIND       PRES   REMARKS
DULUTH         PTCLDY    42  25  50 NW13G22   29.77R
ELY            MOCLDY    37  27  65 W10G20    29.74R
HIBBING        CLEAR     38  25  59 NW14      29.80R
EVELETH        PTCLDY    39  27  60 NW14G20   29.79R
DULUTH HARBOR  MOCLDY    45  28  53 CALM      29.81R
TWO HARBORS    PTCLDY    45  30  57 NW8G17    29.74R
SILVER BAY     CLEAR     43  27  52 W7G16     29.72R
GRAND MARAIS     N/A     39  29  67 NW6G17    29.67R
G MARAIS ARPRT MOCLDY    34  25  69 NW12G21   29.65R WCI  25
$$
MNZ029>031-032-039>041-046>048-054>057-064-300200-
   West Central Minnesota

CITY           SKY/WX    TMP DP  RH WIND       PRES   REMARKS
FERGUS FALLS   CLOUDY    45  28  53 N7        29.94S
WHEATON        CLEAR     45  27  49 W5        29.98R
MORRIS         PTCLDY    46  28  49 NW9       29.94S
ALEXANDRIA     CLEAR     44  26  49 NW7       29.93R
ELBOW LAKE     MOCLDY    45  28  52 NW7       29.93S
WADENA         PTCLDY    43  27  52 NW8       29.90S
GLENWOOD       CLEAR     43  28  56 W9        29.94S
APPLETON       CLEAR     48  27  43 NW9       29.97S
BENSON         CLEAR     45  27  49 N8        29.96R
ORTONVILLE     PTCLDY    50  25  37 NW9       29.97S
MADISON        CLEAR     48  25  40 NW7       29.99R
WILLMAR        FAIR      46  28  49 NW10      29.97R
$$
MNZ033>034-036-042>043-049>051-058-059-300200-
   Central Minnesota

CITY           SKY/WX    TMP DP  RH WIND       PRES   REMARKS
ST CLOUD       CLEAR     46  26  45 NW14      29.89R
SAUK CENTRE    FAIR      46  27  47 NW9       29.93R
PAYNESVILLE    CLEAR     43  29  59 W8        29.94R
AITKIN         CLEAR     45  27  49 NW6       29.84R
PINE RIVER     CLEAR     45  27  49 NW6       29.91R
BRAINERD       CLEAR     46  24  42 NW15      29.88R
STAPLES        PTCLDY    43  21  42 NW10      29.90R
LONG PRAIRIE   FAIR      43  27  52 W9        29.92R
LITTLE FALLS   CLEAR     46  23  39 NW7G20    29.90R
LITCHFIELD     CLEAR     48  28  46 CALM      29.94R
MAPLE LAKE     CLEAR     47  30  50 NW9       29.92R
$$
MNZ037-044-045-052-053-300200-
   East Central Minnesota

CITY           SKY/WX    TMP DP  RH WIND       PRES   REMARKS
PRINCETON      CLEAR     46  28  49 W13       29.89R
MORA           CLEAR     45  28  53 NW12G17   29.88R
CAMBRIDGE      CLEAR     48  30  49 NW9G17    29.86R
RUSH CITY      PTCLDY    45  28  50 NW9G20    29.86R
MOOSE LAKE     CLEAR     43  27  52 CALM      29.81R
HINCKLEY       FAIR      45  28  53 NW9G21    29.84R
CLOQUET        CLEAR     43  21  42 NW9       29.79R
MCGREGOR       PTCLDY    43  28  56 NW9G16    29.84R
$$
MNZ071>073-080-081-089-090-097-098-300200-
   Southwest Minnesota

CITY           SKY/WX    TMP DP  RH WIND       PRES   REMARKS
MONTEVIDEO     CLEAR     50  27  40 N9        29.98S
GRANITE FALLS  CLEAR     49  26  39 W13       30.00R
CANBY          CLEAR     47  26  43 W8        30.01R
MARSHALL       CLEAR     48  21  34 NW13      30.01R
REDWOOD FALLS  PTCLDY    51  25  36 NW15G21   29.97R
OLIVIA         CLEAR     46  32  57 NW10      29.96R
PIPESTONE      CLEAR     50  19  29 N9        30.02R
WINDOM         CLEAR     50  23  34 NW14      30.00R
WORTHINGTON    CLEAR     48  21  34 NW14      30.03R
JACKSON        CLEAR     50  19  29 NW15G24   30.00R
TRACY          CLEAR     50  25  37 NW15      30.01R
SLAYTON        CLEAR     48  20  33 NW13      30.03R
$$
MNZ065>067-074>077-082>085-091>093-300200-
   South Central Minnesota

CITY           SKY/WX    TMP DP  RH WIND       PRES   REMARKS
MANKATO        CLEAR     46  30  53 NW12      29.96R
NEW ULM        CLEAR     48  27  43 NW15      29.97R
ST JAMES       CLEAR     50  27  40 NW13      29.99R
FAIRMONT       CLEAR     52  23  32 NW17G25   29.98R
GLENCOE        CLEAR     46  34  61 W9        29.93R
FARIBAULT      CLEAR     46  30  53 W10G18    29.94R
OWATONNA       CLEAR     45  30  57 W14       29.94R
WASECA         CLEAR     45  30  57 NW15G25   29.95R
ALBERT LEA     CLEAR     48  30  49 NW12G24   29.94R
$$
MNZ078>079-086>088-094>096-300200-
   Southeast Minnesota

CITY           SKY/WX    TMP DP  RH WIND       PRES   REMARKS
ROCHESTER      CLEAR     42  29  59 NW21      29.89R
RED WING       CLEAR     48  25  40 NW10G18   29.87R
STANTON        CLEAR     46  29  50 NW15      29.90R
DODGE CENTER   CLEAR     45  30  57 NW16G23   29.91R
WINONA         CLEAR     48  30  49 W9        29.86R
AUSTIN         CLEAR     45  28  53 NW17G24   29.93R
PRESTON        CLEAR     42  28  58 NW26      29.89R
$$
ABBREVIATIONS USED IN REMARKS
   TC - TEMPERATURES IN CELSIUS
  WCI - WIND CHILL INDEX
   HX - HEAT INDEX
  VSB - VISIBILITY
$$



USA.gov is the U.S. government's official web portal to all federal, state and local government web resources and services.